Newberry, SC

6:20 AM EDT on April 19, 2018 (GMT -0400)
Newberry

Weather History for KEOE - October, 2012

Change the Weather History Date:

Monday, October 8, 2012

  Actual Average (KFDW) Record (KFDW)
Temperature  
Mean Temperature 55 °F -  
Max Temperature 59 °F 76 °F 84 °F (2014)
Min Temperature 50 °F 51 °F 51 °F (2012)
Degree Days  
Heating Degree Days 10    
Growing Degree Days 5 (Base 50)    
Moisture  
Dew Point 50 °F    
Average Humidity 85    
Maximum Humidity 100    
Minimum Humidity 77    
Precipitation  
Precipitation 0.00 in - - ()
Sea Level Pressure  
Sea Level Pressure 30.16 in    
Wind  
Wind Speed 8 mph (NNE)    
Max Wind Speed 14 mph    
Max Gust Speed 17 mph    
Visibility 10 miles    
Events      
Averages and records for this station are not official NWS values.
T = Trace of Precipitation, MM = Missing Value Source: NWS Daily Summary

Daily Weather History Graph

Daily Weather History Graph

Search for Another Location

Airport or City:

Astronomy

Oct. 08, 2012 Rise Set
Actual Time 7:26 AM EDT 7:00 PM EDT
Civil Twilight 7:01 AM EDT 7:25 PM EDT
Nautical Twilight 6:32 AM EDT 7:54 PM EDT
Astronomical Twilight 6:03 AM EDT 8:23 PM EDT
Moon 12:22 AM EDT (10/8) 2:33 PM EDT (10/8)
Length of Visible Light 12h 24m
Length of Day
11h 33m
Waning Gibbous, 46% of the Moon is Illuminated
Oct 8
Waning Gibbous
Oct 15
New
Oct 21
First Quarter
Oct 29
Full
Nov 6
Last Quarter

Hourly Weather History & Observations

Time (EDT) Temp. Dew Point Humidity Pressure Visibility Wind Dir Wind Speed Gust Speed Precip Events Conditions
12:15 AM 59.0 °F 51.8 °F 77% 30.14 in 10.0 mi NE 6.9 mph - N/A   Overcast
12:35 AM 59.0 °F 51.8 °F 77% 30.14 in 10.0 mi ENE 5.8 mph - N/A   Overcast
12:55 AM 59.0 °F 51.8 °F 77% 30.15 in 10.0 mi NE 8.1 mph - N/A   Overcast
1:15 AM 59.0 °F 51.8 °F 77% 30.15 in 10.0 mi NE 6.9 mph - N/A   Overcast
1:35 AM 57.2 °F 51.8 °F 82% 30.15 in 10.0 mi NE 8.1 mph - N/A   Overcast
1:55 AM 57.2 °F 51.8 °F 82% 30.15 in 10.0 mi NE 8.1 mph - N/A   Overcast
2:15 AM 57.2 °F 51.8 °F 82% 30.15 in 10.0 mi NE 6.9 mph - N/A   Overcast
2:35 AM 57.2 °F 50.0 °F 77% 30.15 in 10.0 mi ENE 8.1 mph - N/A   Overcast
2:55 AM 57.2 °F 50.0 °F 77% 30.14 in 10.0 mi ENE 5.8 mph - N/A   Overcast
3:15 AM 57.2 °F 50.0 °F 77% 30.14 in 10.0 mi ENE 4.6 mph - N/A   Overcast
3:35 AM 55.4 °F 50.0 °F 82% 30.13 in 10.0 mi NE 6.9 mph - N/A   Overcast
3:55 AM 55.4 °F 50.0 °F 82% 30.13 in 10.0 mi NE 6.9 mph - N/A   Overcast
4:15 AM 55.4 °F 50.0 °F 82% 30.12 in 10.0 mi NE 5.8 mph - N/A   Overcast
4:35 AM 55.4 °F 50.0 °F 82% 30.13 in 10.0 mi NE 8.1 mph - N/A   Overcast
4:55 AM 55.4 °F 50.0 °F 82% 30.14 in 10.0 mi NNE 9.2 mph - N/A   Overcast
5:15 AM 55.4 °F 50.0 °F 82% 30.14 in 10.0 mi NNE 10.4 mph - N/A   Overcast
5:55 AM 55.4 °F 50.0 °F 82% 30.15 in 10.0 mi NNE 13.8 mph - N/A   Overcast
6:15 AM 55.4 °F 50.0 °F 82% 30.15 in 10.0 mi NE 8.1 mph - N/A   Overcast
6:35 AM 55.4 °F 50.0 °F 82% 30.16 in 10.0 mi NE 8.1 mph - N/A   Overcast
6:55 AM 55.4 °F 48.2 °F 77% 30.16 in 10.0 mi NE 6.9 mph - N/A   Overcast
7:15 AM 55.4 °F 50.0 °F 82% 30.16 in 10.0 mi NE 9.2 mph - N/A   Overcast
7:35 AM 55.4 °F 50.0 °F 82% 30.16 in 10.0 mi NNE 8.1 mph - N/A   Overcast
7:55 AM 55.4 °F 50.0 °F 82% 30.16 in 10.0 mi NNE 10.4 mph - N/A   Overcast
8:15 AM 55.4 °F 50.0 °F 82% 30.17 in 10.0 mi NNE 8.1 mph - N/A   Overcast
8:35 AM 55.4 °F 48.2 °F 77% 30.17 in 10.0 mi NNE 9.2 mph - N/A   Overcast
8:55 AM 55.4 °F 48.2 °F 77% 30.17 in 10.0 mi NNE 11.5 mph - N/A   Overcast
9:15 AM 55.4 °F 48.2 °F 77% 30.18 in 10.0 mi NE 4.6 mph - N/A   Overcast
9:35 AM 55.4 °F 48.2 °F 77% 30.18 in 10.0 mi ENE 5.8 mph - N/A   Overcast
9:55 AM 55.4 °F 48.2 °F 77% 30.19 in 10.0 mi ENE 6.9 mph - N/A   Overcast
10:15 AM 55.4 °F 48.2 °F 77% 30.20 in 10.0 mi NE 8.1 mph - N/A   Overcast
10:55 AM 55.4 °F 50.0 °F 82% 30.20 in 10.0 mi NE 6.9 mph - N/A   Overcast
11:15 AM 55.4 °F 50.0 °F 82% 30.21 in 10.0 mi NE 8.1 mph - N/A   Overcast
11:35 AM 55.4 °F 50.0 °F 82% 30.20 in 10.0 mi NE 11.5 mph - N/A   Overcast
11:55 AM 55.4 °F 50.0 °F 82% 30.19 in 10.0 mi NE 11.5 mph - N/A   Overcast
12:15 PM 55.4 °F 50.0 °F 82% 30.19 in 10.0 mi NNE 6.9 mph - N/A   Overcast
12:35 PM 55.4 °F 50.0 °F 82% 30.19 in 10.0 mi NE 6.9 mph - N/A   Overcast
12:55 PM 55.4 °F 50.0 °F 82% 30.18 in 10.0 mi NE 9.2 mph - N/A   Overcast
1:15 PM 55.4 °F 50.0 °F 82% 30.18 in 10.0 mi NNE 11.5 mph - N/A   Overcast
1:35 PM 55.4 °F 50.0 °F 82% 30.17 in 10.0 mi NNE 9.2 mph - N/A   Overcast
1:55 PM 57.2 °F 50.0 °F 77% 30.15 in 10.0 mi NE 10.4 mph - N/A   Overcast
2:15 PM 55.4 °F 50.0 °F 82% 30.15 in 10.0 mi NNE 12.7 mph 17.3 mph N/A   Overcast
2:35 PM 55.4 °F 50.0 °F 82% 30.14 in 10.0 mi NNE 10.4 mph - N/A   Overcast
2:55 PM 55.4 °F 50.0 °F 82% 30.14 in 10.0 mi NNE 11.5 mph - N/A   Overcast
3:15 PM 55.4 °F 50.0 °F 82% 30.14 in 10.0 mi North 11.5 mph - N/A   Overcast
3:35 PM 55.4 °F 50.0 °F 82% 30.14 in 10.0 mi North 10.4 mph - N/A   Overcast
4:15 PM 53.6 °F 50.0 °F 88% 30.14 in 10.0 mi North 11.5 mph - N/A   Overcast
4:35 PM 53.6 °F 50.0 °F 88% 30.14 in 10.0 mi North 12.7 mph - N/A   Overcast
4:55 PM 53.6 °F 50.0 °F 88% 30.14 in 10.0 mi North 11.5 mph 16.1 mph N/A   Overcast
5:15 PM 53.6 °F 50.0 °F 88% 30.14 in 10.0 mi North 10.4 mph - N/A   Overcast
5:35 PM 53.6 °F 50.0 °F 88% 30.14 in 10.0 mi NNE 9.2 mph - N/A   Overcast
5:55 PM 53.6 °F 50.0 °F 88% 30.14 in 10.0 mi NNE 8.1 mph - N/A   Overcast
6:15 PM 53.6 °F 50.0 °F 88% 30.14 in 10.0 mi NNE 11.5 mph - N/A   Overcast
6:35 PM 53.6 °F 50.0 °F 88% 30.15 in 10.0 mi NNE 8.1 mph - N/A   Overcast
6:55 PM 53.6 °F 50.0 °F 88% 30.15 in 10.0 mi NNE 10.4 mph - N/A   Overcast
7:15 PM 51.8 °F 50.0 °F 94% 30.16 in 10.0 mi North 6.9 mph - N/A   Overcast
7:35 PM 51.8 °F 50.0 °F 94% 30.16 in 7.0 mi North 8.1 mph - N/A   Overcast
7:55 PM 51.8 °F 51.8 °F 100% 30.16 in 5.0 mi North 6.9 mph - N/A   Overcast
8:15 PM 51.8 °F 51.8 °F 100% 30.17 in 5.0 mi North 9.2 mph - N/A   Overcast
8:35 PM 51.8 °F 51.8 °F 100% 30.18 in 4.0 mi NNE 9.2 mph - N/A   Overcast
8:55 PM 51.8 °F 51.8 °F 100% 30.18 in 7.0 mi NNE 6.9 mph - N/A   Overcast
9:15 PM 51.8 °F 51.8 °F 100% 30.18 in 10.0 mi NNE 5.8 mph - N/A   Overcast
9:35 PM 51.8 °F 51.8 °F 100% 30.19 in 10.0 mi NE 5.8 mph - N/A   Overcast
10:15 PM 51.8 °F 50.0 °F 94% 30.19 in 10.0 mi NE 8.1 mph - N/A   Overcast
10:35 PM 51.8 °F 51.8 °F 100% 30.19 in 10.0 mi NNE 8.1 mph - N/A   Overcast
10:55 PM 51.8 °F 51.8 °F 100% 30.19 in 10.0 mi NNE 8.1 mph - N/A   Overcast
11:15 PM 51.8 °F 51.8 °F 100% 30.19 in 10.0 mi NNE 6.9 mph - N/A   Overcast
11:35 PM 51.8 °F 50.0 °F 94% 30.19 in 10.0 mi North 8.1 mph - N/A   Overcast
11:55 PM 50.0 °F 50.0 °F 100% 30.19 in 10.0 mi NNE 6.9 mph - N/A   Overcast